This is the latest recevied weather packets stored in our database for station/object KC8JWT. If no packets are shown the sender has not sent any weather packets the latest 10 day(s).
| Time | Temp. | Humidity | Pressure | Rain* | Wind** | Luminosity | Snow |
|---|---|---|---|---|---|---|---|
| 1777479574 | 20° C | 90% | 1008.5 hPa | 1.78 mm | - | 163 W/m² | - |
| 1777479273 | 20° C | 88% | 1008.7 hPa | 0 mm | - | 137 W/m² | - |
| 1777478969 | 20° C | 87% | 1008.5 hPa | 0 mm | - | 118 W/m² | - |
| 1777478666 | 20° C | 85% | 1008.8 hPa | 0 mm | - | 94 W/m² | - |
| 1777478362 | 20.56° C | 84% | 1008.7 hPa | 0 mm | - | 95 W/m² | - |
| 1777478059 | 20.56° C | 82% | 1008.6 hPa | 0 mm | - | 90 W/m² | - |
| 1777477756 | 21.11° C | 83% | 1008.7 hPa | 0 mm | - | 173 W/m² | - |
| 1777477451 | 21.11° C | 83% | 1008.8 hPa | 0 mm | - | 195 W/m² | - |
| 1777477148 | 21.11° C | 84% | 1009 hPa | 0 mm | - | 239 W/m² | - |
| 1777476844 | 21.11° C | 84% | 1008.9 hPa | 0 mm | - | 170 W/m² | - |
| 1777476542 | 21.11° C | 84% | 1009.1 hPa | 0 mm | - | 205 W/m² | - |
| 1777476238 | 21.11° C | 85% | 1008.9 hPa | 0 mm | - | 234 W/m² | - |
| 1777475933 | 21.11° C | 85% | 1009 hPa | 0 mm | - | 305 W/m² | - |
| 1777475630 | 21.11° C | 86% | 1009.1 hPa | 0 mm | - | 361 W/m² | - |
| 1777475326 | 21.11° C | 87% | 1009 hPa | 0 mm | - | 365 W/m² | - |
| 1777475021 | 21.11° C | 88% | 1009.4 hPa | 0 mm | - | 406 W/m² | - |
| 1777474718 | 20.56° C | 88% | 1009.1 hPa | 0 mm | - | 304 W/m² | - |
| 1777474415 | 20.56° C | 88% | 1009.3 hPa | 0 mm | - | 311 W/m² | - |
| 1777474111 | 20° C | 89% | 1009.2 hPa | 0 mm | - | 378 W/m² | - |
| 1777473809 | 20° C | 90% | 1009.3 hPa | 0 mm | - | 294 W/m² | - |
| 1777473506 | 19.44° C | 91% | 1009.3 hPa | 0 mm | - | 232 W/m² | - |
| 1777473201 | 19.44° C | 92% | 1009.4 hPa | 0 mm | - | 179 W/m² | - |
| 1777472898 | 18.89° C | 92% | 1009.3 hPa | 0 mm | - | 234 W/m² | - |
| 1777472595 | 18.89° C | 92% | 1009.8 hPa | 0 mm | - | 163 W/m² | - |
| 1777472292 | 18.89° C | 92% | 1009.4 hPa | 0 mm | - | 187 W/m² | - |
* Rain latest hour (hover to see other rain measurements)
** Current wind speed in m/s (hover to see current wind gust speed)